{"data":{"norad_id":52539,"intl_designator":"2022-051G","name":"STARLINK-3757","alt_names":[],"object_type":"PAYLOAD","status":"ACTIVE","operator":null,"country":"US","launch_date":"2022-05-13","launch_site_code":"AFWTR","launch_vehicle":null,"mission":null,"orbit_class":"UNKNOWN","rcs_meters":null,"size_class":null,"mass_kg":null,"dimensions":null,"purposes":["comms"],"wikipedia_slug":null,"has_3d_model":false,"image_url":null,"decayed_at":null,"tle_current":{"epoch":"2026-09-19T18:52:08.753088Z","epoch_age_seconds":125032,"freshness":"FRESH","line1":"1 52539U 22051G   26262.78621242  .00001359  00000+0  52641-4 0  9993","line2":"2 52539  53.1605 325.2536 0001210  88.1324 271.9817 15.33548053240910","mean_motion":15.33548053,"eccentricity":0.000121,"inclination_deg":53.1605,"raan_deg":325.2536,"arg_perigee_deg":88.1324,"mean_anomaly_deg":271.9817,"bstar":5.2641e-5,"rev_number":24091,"period_min":93.899894247396,"perigee_km":464.40853022133,"apogee_km":466.06462662731,"semimajor_km":6843.3735784243,"source":"CELESTRAK","updated_at":"2026-09-20T09:00:40.059243Z"}}}